Location: Invercargill
(46.4000°S, 168.3500°E)
Time: 18:36:22
(UTC+12:00)

Cosmos 1689 Rocket - Pass Details

Date: 14 May 2021
Orbit: 344 x 355 km, 97.5° (Epoch: 14 June)

Event Time Altitude Azimuth Distance (km) Brightness Sun altitude
Rises 18:32:58 0° 33° (NNE) 2,181 5.7 -11.7°
Reaches altitude 10° 18:34:58 10° 43° (NE) 1,348 4.5 -12.1°
Maximum altitude 18:37:34 32° 109° (ESE) 658 2.7 -12.5°
Drops below altitude 10° 18:40:14 10° 174° (S) 1,378 4.7 -13.0°
Sets 18:42:19 0° 184° (S) 2,239 5.8 -13.3°
